Weather History for Rogers, AR

Change the Weather History Date:

Monday, December 17, 2012

  Actual Average Record
Temperature  
Mean Temperature 40 °F -  
Max Temperature 42 °F 44 °F 68 °F (2002)
Min Temperature 37 °F 27 °F 3 °F (2000)
Degree Days  
Heating Degree Days 26    
Moisture  
Dew Point 37 °F    
Average Humidity 93    
Maximum Humidity 100    
Minimum Humidity 79    
Precipitation  
Precipitation 0.00 in - - ()
Sea Level Pressure  
Sea Level Pressure 29.76 in    
Wind  
Wind Speed 8 mph (WNW)    
Max Wind Speed 13 mph    
Max Gust Speed -    
Visibility 3 miles    
Events Fog , Rain    
Averages and records for this station are not official NWS values.
T = Trace of Precipitation, MM = Missing Value Source: NWS Daily Summary

Daily Weather History Graph

Daily Weather History Graph

Search for Another Location

Airport:

Trip Planner

Search our weather history database for the weather conditions in past years. The results will help you decide how hot, cold, wet, or windy it might be!

Date:

Astronomy

Dec. 17, 2012 Rise Set
Actual Time 7:22 AM CST 5:03 PM CST
Civil Twilight 6:53 AM CST 5:32 PM CST
Nautical Twilight 6:21 AM CST 6:04 PM CST
Astronomical Twilight 5:49 AM CST 6:35 PM CST
Moon 10:38 AM CST (12/17) 10:17 PM CST (12/17)
Length of Visible Light 10h 38m
Length of Day
9h 41m
Waxing Crescent, 25% of the Moon is Illuminated
Dec 17
Waxing Crescent
Dec 19
First Quarter
Dec 28
Full
Jan 4
Last Quarter
Jan 11
New

Hourly Weather History & Observations

Time (CST) Temp. Windchill Dew Point Humidity Pressure Visibility Wind Dir Wind Speed Gust Speed Precip Events Conditions
12:57 AM 42.1 °F 40.2 °F 37.9 °F 85% 29.70 in 10.0 mi NE 3.5 mph - N/A   Clear
1:57 AM 39.9 °F 35.8 °F 37.0 °F 89% 29.71 in 10.0 mi WNW 5.8 mph - N/A   Clear
2:50 AM 37.4 °F 32.8 °F 35.6 °F 93% 29.71 in 6.0 mi NW 5.8 mph - N/A   Partly Cloudy
2:57 AM 37.4 °F 32.1 °F 35.6 °F 93% 29.71 in 4.0 mi NW 6.9 mph - N/A   Mostly Cloudy
2:59 AM 37.4 °F 32.1 °F 35.6 °F 93% 29.71 in 2.0 mi NNW 6.9 mph - N/A   Mostly Cloudy
3:01 AM 37.4 °F 31.4 °F 35.6 °F 93% 29.71 in 0.8 mi NW 8.1 mph - N/A   Mostly Cloudy
3:04 AM 37.4 °F 31.4 °F 35.6 °F 93% 29.71 in 0.2 mi NNW 8.1 mph - N/A Fog Fog
3:57 AM 39.0 °F 32.3 °F 37.9 °F 96% 29.71 in 0.2 mi NW 10.4 mph - N/A Fog Fog
4:57 AM 39.0 °F 31.8 °F 37.9 °F 96% 29.71 in 0.2 mi NW 11.5 mph - N/A Fog Fog
5:07 AM 39.2 °F 31.6 °F 37.4 °F 93% 29.72 in 0.5 mi NW 12.7 mph - N/A Fog Fog
5:17 AM 37.4 °F 29.3 °F 37.4 °F 100% 29.72 in 0.8 mi NW 12.7 mph - N/A   Overcast
5:20 AM 37.4 °F 30.3 °F 37.4 °F 100% 29.72 in 1.0 mi NW 10.4 mph - N/A   Overcast
5:23 AM 37.4 °F 31.4 °F 37.4 °F 100% 29.72 in 1.2 mi NW 8.1 mph - N/A   Overcast
5:28 AM 37.4 °F 30.3 °F 37.4 °F 100% 29.72 in 1.0 mi NW 10.4 mph - N/A   Overcast
5:32 AM 37.4 °F 30.8 °F 37.4 °F 100% 29.73 in 0.8 mi NW 9.2 mph - N/A   Overcast
5:42 AM 37.4 °F 30.8 °F 37.4 °F 100% 29.73 in 0.5 mi WNW 9.2 mph - N/A Fog Fog
5:46 AM 37.4 °F 32.1 °F 37.4 °F 100% 29.73 in 0.8 mi NW 6.9 mph - N/A   Overcast
5:57 AM 39.0 °F 34.0 °F 37.9 °F 96% 29.73 in 0.8 mi NW 6.9 mph - N/A   Overcast
6:10 AM 39.2 °F 32.5 °F 37.4 °F 93% 29.73 in 1.0 mi NW 10.4 mph - N/A   Overcast
6:29 AM 39.2 °F 34.2 °F 37.4 °F 93% 29.74 in 1.2 mi NW 6.9 mph - N/A   Overcast
6:33 AM 39.2 °F 34.2 °F 37.4 °F 93% 29.74 in 1.0 mi NW 6.9 mph - N/A   Overcast
6:43 AM 39.2 °F 33.0 °F 37.4 °F 93% 29.74 in 1.2 mi NW 9.2 mph - N/A   Overcast
6:57 AM 39.0 °F 33.4 °F 37.9 °F 96% 29.76 in 1.0 mi WNW 8.1 mph - N/A   Overcast
7:08 AM 39.2 °F 32.0 °F 37.4 °F 93% 29.76 in 1.2 mi WNW 11.5 mph - 0.00 in Rain Light Rain
7:31 AM 39.2 °F 33.6 °F 37.4 °F 93% 29.77 in 1.0 mi NW 8.1 mph - 0.00 in Rain Light Rain
7:35 AM 39.2 °F 33.6 °F 37.4 °F 93% 29.77 in 1.2 mi WNW 8.1 mph - 0.00 in Rain Light Rain
7:57 AM 39.2 °F 33.6 °F 37.4 °F 93% 29.77 in 0.8 mi WNW 8.1 mph - 0.00 in Rain Light Rain
7:59 AM 39.0 °F 32.8 °F 37.9 °F 96% 29.78 in 0.8 mi WNW 9.2 mph - 0.00 in Rain Light Rain
8:35 AM 37.4 °F 31.4 °F 37.4 °F 100% 29.78 in 1.0 mi WNW 8.1 mph - 0.00 in   Overcast
8:39 AM 37.4 °F 32.1 °F 37.4 °F 100% 29.78 in 1.2 mi WNW 6.9 mph - 0.00 in   Overcast
8:50 AM 37.4 °F 32.8 °F 37.4 °F 100% 29.77 in 2.5 mi NW 5.8 mph - 0.00 in   Overcast
8:57 AM 39.0 °F 34.0 °F 37.9 °F 96% 29.79 in 2.5 mi WNW 6.9 mph - 0.00 in   Overcast
9:03 AM 39.2 °F 33.6 °F 37.4 °F 93% 29.78 in 3.0 mi WNW 8.1 mph - N/A   Overcast
9:14 AM 39.2 °F 33.6 °F 37.4 °F 93% 29.78 in 2.5 mi WNW 8.1 mph - N/A   Overcast
9:39 AM 37.4 °F 30.8 °F 37.4 °F 100% 29.79 in 3.0 mi West 9.2 mph - N/A   Overcast
9:57 AM 37.9 °F 30.9 °F 37.9 °F 100% 29.80 in 2.5 mi West 10.4 mph - N/A   Overcast
10:03 AM 39.2 °F 32.5 °F 37.4 °F 93% 29.80 in 3.0 mi West 10.4 mph - N/A   Overcast
10:57 AM 39.2 °F 34.2 °F 37.4 °F 93% 29.79 in 5.0 mi West 6.9 mph - N/A   Overcast
10:59 AM 39.0 °F 34.0 °F 37.9 °F 96% 29.81 in 5.0 mi West 6.9 mph - N/A   Overcast
11:57 AM 39.9 °F 33.4 °F 37.9 °F 93% 29.81 in 6.0 mi West 10.4 mph - N/A   Overcast
12:57 PM 39.9 °F 33.9 °F 37.9 °F 93% 29.81 in 5.0 mi West 9.2 mph - N/A   Overcast
1:57 PM 41.0 °F 35.2 °F 35.6 °F 81% 29.79 in 6.0 mi West 9.2 mph - N/A   Haze
1:59 PM 41.0 °F 34.7 °F 37.0 °F 86% 29.80 in 6.0 mi West 10.4 mph - N/A   Overcast
2:57 PM 41.0 °F 37.1 °F 35.6 °F 81% 29.78 in 8.0 mi West 5.8 mph - N/A   Scattered Clouds
2:59 PM 41.0 °F 37.1 °F 35.1 °F 79% 29.80 in 7.0 mi West 5.8 mph - N/A   Scattered Clouds
6:57 PM 37.9 °F 32.7 °F 33.1 °F 83% 29.82 in 9.0 mi SSW 6.9 mph - N/A   Clear
7:57 PM 39.0 °F 32.8 °F 34.0 °F 82% 29.84 in 8.0 mi SSW 9.2 mph - N/A   Clear
8:57 PM 37.0 °F 31.6 °F 32.0 °F 82% 29.85 in 8.0 mi South 6.9 mph - N/A   Clear
10:57 PM 37.9 °F 32.7 °F 33.1 °F 83% 29.83 in 8.0 mi SSE 6.9 mph - N/A   Clear
11:57 PM 37.0 °F 31.0 °F 32.0 °F 82% 29.82 in 8.0 mi SSE 8.1 mph - N/A   Clear